Showing default

TJS-1, 40892

Orbit data source: Space-Track

TJS-1, 40892 is a payload satellite owned by CASC (CN) in GEO that was launched on Sat, 12 Sep 2015 UTC via a CHANG ZHENG 3B launch vehicle from the Xichang Space Center, China (XSC). Payload-class satellites include a variety of spacecraft equipped with specific instruments for various scientific and technological missions. These include communications satellites like Starlink; space stations such as the ISS; scientific satellites like the Hubble; Earth observation satellites from companies like Planet Labs, Umbra, and HawkEye 360; GPS; miniature CubeSats for education and research; and military/defense satellites.

Not visible in the next 10 days
Identifier
40892, 2015-046A
Orbit
GEO
Country
Flag of CNCN / PRC
Related business
Manufacturer
CAST
Mission
Operational Defense Communications
Bus & Motor
DFH-4?, DFH-4 LAE
Mass
~4,000 kg wet, ~2,500 kg dry
Launch date (UTC)
2015-09-12 (10 years ago)
Launch vehicle
CHANG ZHENG 3B
Launch site
Xichang Space Center, China (XSC)
Object type
Payload
Rocket body
Debris
Shape & HBR
Box + 2 Pan, 15.0 m
Radar Cross Section
34.063 m², Large (>1 m²)

Expand to show TLE details & history
Last TLE update: 8 hours ago

TLE from 8 hours ago
0 TJS-1
1 40892U 15046A   25260.89909093  .00000000  00000-0  00000-0 0  9991
2 40892   0.0198 168.3880 0003028  53.7134 253.6605  1.00267044 36845
Epoch: 2025-09-17T21:34Z
TLE epoch observation values (Epoch: 2025-09-17T21:34:41.456Z)
Latitude
-0.03249°
Longitude
154.98929°
Altitude
35,790.953 km
Speed
3.074 km/s
True Right ascension
07h 42m 55s
True Declination
0° 01' 57"
Sunlit
Object was in daylight at epoch
Visualization orbit readout
Latitude
Unknown
Longitude
Unknown
Altitude
Unknown
Speed
Unknown
Apparent Right ascension
Unknown
Apparent Declination
Unknown
Sunlit
N/A
Visualization observer readout
Local Sidereal Time
22:22:55
Azimuth
Unknown
Elevation
Unknown
Doppler factor
Unknown
Orbital elements
Apogee altitude
35,801.763 km
Perigee altitude
35,776.226 km
Semi-major axis
42,167.131 km
Eccentricity
0.0003
Inclination
0.0198°
RAAN
168.388°
Arg. of periapsis
53.7134°
True anomaly
253.62721°
Mean anomaly
253.6605°
Eccentric anomaly
253.64385°
Mean motion
0.25066 °/min
Orbital period
1,436.22 mins
BSTAR
0
Loading maneuver chart data...
Computing Atmospheric mass density...
Loading historical data...
Loading historical data...
Loading historical data...
Loading historical data...
Loading historical data...
Loading historical data...
Loading historical data...
Other satellites on launch #46 in the year 2015 (2015-09-12 UTC)

Documentation

Showing up to 5 results
|